Time,TemperatureF,DewpointF,PressureIn,WindDirection,WindDirectionDegrees,WindSpeedMPH,WindSpeedGustMPH,Humidity,HourlyPrecipIn,Conditions,Clouds,dailyrainin,SoftwareType,DateUTC
2013-09-07 00:13:00,71.0,65.0,30.01,SSE,163,2.0,5.0,80,0.00,,,0.00,,2013-09-07 05:13:00,
2013-09-07 00:23:00,71.0,65.0,30.00,SSE,162,4.0,9.0,80,0.00,,,0.00,,2013-09-07 05:23:00,
2013-09-07 00:52:00,71.0,64.0,30.01,South,172,2.0,3.0,79,0.00,,,0.00,,2013-09-07 05:52:00,
2013-09-07 01:13:00,71.0,64.0,30.00,South,172,0.0,3.0,79,0.00,,,0.00,,2013-09-07 06:13:00,
2013-09-07 01:21:00,70.0,63.0,30.00,South,172,0.0,3.0,78,0.00,,,0.00,,2013-09-07 06:21:00,
2013-09-07 01:42:00,70.0,63.0,30.01,South,172,0.0,1.0,79,0.00,,,0.00,,2013-09-07 06:42:00,
2013-09-07 01:52:00,69.0,63.0,30.01,South,172,0.0,2.0,80,0.00,,,0.00,,2013-09-07 06:52:00,
2013-09-07 02:12:00,69.0,63.0,30.01,South,172,0.0,1.0,81,0.00,,,0.00,,2013-09-07 07:12:00,
2013-09-07 02:22:00,69.0,63.0,30.01,South,172,0.0,0.0,81,0.00,,,0.00,,2013-09-07 07:22:00,
2013-09-07 02:42:00,68.0,62.0,30.01,South,172,0.0,1.0,82,0.00,,,0.00,,2013-09-07 07:42:00,
2013-09-07 02:52:00,67.0,62.0,30.00,South,172,0.0,1.0,84,0.00,,,0.00,,2013-09-07 07:52:00,
2013-09-07 03:12:00,67.0,62.0,30.00,South,172,0.0,1.0,83,0.00,,,0.00,,2013-09-07 08:12:00,
2013-09-07 03:22:00,68.0,62.0,29.99,South,172,0.0,1.0,82,0.00,,,0.00,,2013-09-07 08:22:00,
2013-09-07 03:52:00,68.0,62.0,29.98,South,172,0.0,2.0,80,0.00,,,0.00,,2013-09-07 08:52:00,
2013-09-07 04:12:00,68.0,62.0,29.98,South,172,0.0,1.0,80,0.00,,,0.00,,2013-09-07 09:12:00,
2013-09-07 04:21:00,68.0,62.0,29.98,South,172,0.0,1.0,81,0.00,,,0.00,,2013-09-07 09:21:00,
2013-09-07 04:42:00,67.0,61.0,29.97,South,172,0.0,0.0,82,0.00,,,0.00,,2013-09-07 09:42:00,
2013-09-07 04:52:00,67.0,61.0,29.97,South,172,0.0,1.0,81,0.00,,,0.00,,2013-09-07 09:52:00,
2013-09-07 05:11:00,68.0,62.0,29.97,South,172,0.0,1.0,80,0.00,,,0.00,,2013-09-07 10:11:00,
2013-09-07 05:21:00,68.0,61.0,29.97,South,172,0.0,1.0,79,0.00,,,0.00,,2013-09-07 10:21:00,
2013-09-07 05:41:00,69.0,62.0,29.97,South,172,0.0,1.0,79,0.00,,,0.00,,2013-09-07 10:41:00,
2013-09-07 05:51:00,69.0,62.0,29.99,South,172,0.0,1.0,79,0.00,,,0.00,,2013-09-07 10:51:00,
2013-09-07 06:13:00,69.0,63.0,30.00,South,172,0.0,0.0,80,0.00,,,0.00,,2013-09-07 11:13:00,
2013-09-07 06:23:00,68.0,61.0,29.99,South,172,0.0,1.0,79,0.00,,,0.00,,2013-09-07 11:23:00,
2013-09-07 06:52:00,68.0,62.0,30.00,South,172,0.0,2.0,80,0.00,,,0.00,,2013-09-07 11:52:00,
2013-09-07 07:12:00,68.0,62.0,30.00,South,172,0.0,0.0,81,0.00,,,0.00,,2013-09-07 12:12:00,
2013-09-07 07:22:00,68.0,62.0,30.00,South,172,0.0,1.0,81,0.00,,,0.00,,2013-09-07 12:22:00,
2013-09-07 07:42:00,68.0,62.0,29.99,South,172,0.0,1.0,81,0.00,,,0.00,,2013-09-07 12:42:00,
2013-09-07 07:52:00,69.0,63.0,29.99,South,188,0.0,1.0,80,0.00,,,0.00,,2013-09-07 12:52:00,
2013-09-07 08:12:00,69.0,63.0,29.99,South,188,0.0,1.0,80,0.00,,,0.00,,2013-09-07 13:12:00,
2013-09-07 08:21:00,70.0,64.0,29.99,South,188,0.0,2.0,80,0.00,,,0.00,,2013-09-07 13:21:00,
2013-09-07 08:52:00,71.0,63.0,29.99,SW,223,1.0,4.0,75,0.00,,,0.00,,2013-09-07 13:52:00,
2013-09-07 09:11:00,72.0,63.0,29.98,South,189,0.0,3.0,74,0.00,,,0.00,,2013-09-07 14:11:00,
2013-09-07 09:22:00,73.0,64.0,29.98,SSW,200,0.0,3.0,73,0.00,,,0.00,,2013-09-07 14:22:00,
2013-09-07 09:52:00,75.0,65.0,29.97,SW,216,3.0,9.0,70,0.00,,,0.00,,2013-09-07 14:52:00,
2013-09-07 10:11:00,77.0,65.0,29.96,SSW,205,1.0,9.0,66,0.00,,,0.00,,2013-09-07 15:11:00,
2013-09-07 10:23:00,76.0,64.0,29.96,WSW,252,0.0,9.0,67,0.00,,,0.00,,2013-09-07 15:23:00,
2013-09-07 10:44:00,77.0,66.0,29.96,WSW,252,0.0,8.0,68,0.00,,,0.00,,2013-09-07 15:44:00,
2013-09-07 10:53:00,77.0,66.0,29.96,West,264,0.0,6.0,68,0.00,,,0.00,,2013-09-07 15:53:00,
2013-09-07 11:24:00,78.0,67.0,29.97,West,281,2.0,7.0,68,0.00,,,0.00,,2013-09-07 16:24:00,
2013-09-07 11:43:00,78.0,67.0,29.97,WSW,258,0.0,8.0,68,0.00,,,0.00,,2013-09-07 16:43:00,
2013-09-07 11:53:00,78.0,67.0,29.97,NW,313,2.0,6.0,69,0.00,,,0.00,,2013-09-07 16:53:00,
2013-09-07 12:12:00,79.0,68.0,29.96,WNW,282,1.0,5.0,68,0.00,,,0.00,,2013-09-07 17:12:00,
2013-09-07 12:24:00,80.0,68.0,29.96,WNW,290,0.0,5.0,66,0.00,,,0.00,,2013-09-07 17:24:00,
2013-09-07 12:43:00,80.0,67.0,29.95,WNW,284,0.0,4.0,65,0.00,,,0.00,,2013-09-07 17:43:00,
2013-09-07 12:52:00,80.0,67.0,29.96,WNW,284,1.0,3.0,65,0.00,,,0.00,,2013-09-07 17:52:00,
2013-09-07 13:13:00,81.0,68.0,29.95,WNW,284,1.0,3.0,65,0.00,,,0.00,,2013-09-07 18:13:00,
2013-09-07 13:22:00,81.0,68.0,29.95,WNW,293,4.0,5.0,64,0.00,,,0.00,,2013-09-07 18:22:00,
2013-09-07 13:43:00,83.0,69.0,29.95,SSE,157,2.0,5.0,62,0.00,,,0.00,,2013-09-07 18:43:00,
2013-09-07 13:52:00,83.0,68.0,29.95,West,264,1.0,4.0,61,0.00,,,0.00,,2013-09-07 18:52:00,
2013-09-07 14:11:00,84.0,69.0,29.95,SSE,165,3.0,5.0,60,0.00,,,0.00,,2013-09-07 19:11:00,
2013-09-07 14:22:00,85.0,69.0,29.95,SW,227,0.0,5.0,59,0.00,,,0.00,,2013-09-07 19:22:00,
2013-09-07 14:52:00,85.0,69.0,29.94,SW,231,1.0,5.0,59,0.00,,,0.00,,2013-09-07 19:52:00,
2013-09-07 15:11:00,86.0,70.0,29.93,South,171,3.0,5.0,59,0.00,,,0.00,,2013-09-07 20:11:00,
2013-09-07 15:22:00,86.0,70.0,29.93,WSW,258,0.0,4.0,59,0.00,,,0.00,,2013-09-07 20:22:00,
2013-09-07 15:52:00,86.0,70.0,29.93,SE,146,0.0,6.0,59,0.00,,,0.00,,2013-09-07 20:52:00,
2013-09-07 16:12:00,87.0,70.0,29.93,WNW,297,2.0,4.0,58,0.00,,,0.00,,2013-09-07 21:12:00,
2013-09-07 16:22:00,87.0,71.0,29.93,West,272,2.0,4.0,59,0.00,,,0.00,,2013-09-07 21:22:00,
2013-09-07 16:54:00,88.0,71.0,29.93,West,273,1.0,1.0,57,0.00,,,0.00,,2013-09-07 21:54:00,
2013-09-07 17:13:00,88.0,71.0,29.93,NW,306,2.0,5.0,57,0.00,,,0.00,,2013-09-07 22:13:00,
2013-09-07 17:24:00,88.0,71.0,29.93,NNE,26,0.0,5.0,57,0.00,,,0.00,,2013-09-07 22:24:00,
2013-09-07 17:53:00,87.0,71.0,29.93,NE,38,0.0,3.0,59,0.00,,,0.00,,2013-09-07 22:53:00,
2013-09-07 18:12:00,88.0,72.0,29.93,ESE,105,0.0,3.0,59,0.00,,,0.00,,2013-09-07 23:12:00,
2013-09-07 18:23:00,87.0,71.0,29.94,East,90,0.0,3.0,59,0.00,,,0.00,,2013-09-07 23:23:00,
2013-09-07 18:42:00,86.0,71.0,29.95,SE,134,0.0,2.0,61,0.00,,,0.00,,2013-09-07 23:42:00,
2013-09-07 18:52:00,86.0,72.0,29.95,SE,134,0.0,1.0,64,0.00,,,0.00,,2013-09-07 23:52:00,
2013-09-07 19:11:00,85.0,72.0,29.95,SE,134,0.0,0.0,66,0.00,,,0.00,,2013-09-08 00:11:00,
2013-09-07 19:22:00,84.0,72.0,29.95,SE,134,0.0,1.0,68,0.00,,,0.00,,2013-09-08 00:22:00,
2013-09-07 19:42:00,83.0,73.0,29.96,SE,134,0.0,1.0,71,0.00,,,0.00,,2013-09-08 00:42:00,
2013-09-07 19:52:00,82.0,72.0,29.96,SE,134,0.0,0.0,73,0.00,,,0.00,,2013-09-08 00:52:00,
2013-09-07 20:11:00,80.0,71.0,29.97,NNE,19,3.0,5.0,73,0.00,,,0.00,,2013-09-08 01:11:00,
2013-09-07 20:22:00,79.0,71.0,29.98,NE,47,2.0,5.0,76,0.00,,,0.00,,2013-09-08 01:22:00,
2013-09-07 20:42:00,78.0,70.0,29.99,NNE,22,0.0,4.0,77,0.00,,,0.00,,2013-09-08 01:42:00,
2013-09-07 20:52:00,78.0,71.0,29.99,NE,34,1.0,1.0,79,0.00,,,0.00,,2013-09-08 01:52:00,
2013-09-07 21:11:00,77.0,70.0,29.99,NE,34,0.0,3.0,80,0.00,,,0.00,,2013-09-08 02:11:00,
2013-09-07 21:22:00,76.0,69.0,29.99,NNE,13,0.0,3.0,80,0.00,,,0.00,,2013-09-08 02:22:00,
2013-09-07 21:43:00,76.0,69.0,29.99,South,178,0.0,9.0,80,0.00,,,0.00,,2013-09-08 02:43:00,
2013-09-07 21:52:00,75.0,69.0,30.01,NNE,30,7.0,7.0,81,0.00,,,0.00,,2013-09-08 02:52:00,
2013-09-07 22:12:00,74.0,67.0,30.01,North,9,3.0,11.0,79,0.00,,,0.00,,2013-09-08 03:12:00,
2013-09-07 22:22:00,73.0,66.0,30.02,NNE,18,1.0,9.0,79,0.00,,,0.00,,2013-09-08 03:22:00,
2013-09-07 22:44:00,72.0,67.0,30.03,North,360,6.0,12.0,83,0.00,,,0.00,,2013-09-08 03:44:00,
2013-09-07 22:54:00,71.0,66.0,30.03,NNE,15,7.0,10.0,85,0.00,,,0.00,,2013-09-08 03:54:00,
2013-09-07 23:02:00,-999.0,-99.9,30.04,NNW,329,1.0,8.0,-999,-99.99,,,-99.99,,2013-09-08 04:02:00,
2013-09-07 23:24:00,71.0,67.0,30.04,ENE,61,3.0,12.0,86,0.00,,,0.00,,2013-09-08 04:24:00,
2013-09-07 23:43:00,71.0,67.0,30.05,South,172,1.0,10.0,86,0.00,,,0.00,,2013-09-08 04:43:00,
2013-09-07 23:53:00,71.0,66.0,30.05,North,9,7.0,12.0,85,0.00,,,0.00,,2013-09-08 04:53:00,